TimeCET,TemperatureF,Dew PointF,Humidity,Sea Level PressureIn,VisibilityMPH,Wind Direction,Wind SpeedMPH,Gust SpeedMPH,PrecipitationIn,Events,Conditions,WindDirDegrees,DateUTC
12:00 AM,39.2,37.4,93,29.44,6.2,SSW,8.1,-,N/A,Rain,Light Rain,210,2013-03-19 23:00:00
12:30 AM,39.2,37.4,93,29.44,6.2,SSW,8.1,-,N/A,,Overcast,200,2013-03-19 23:30:00
1:00 AM,39.2,37.4,93,29.44,6.2,SW,6.9,-,N/A,,Overcast,220,2013-03-20 00:00:00
1:30 AM,39.2,37.4,93,29.44,6.2,WSW,6.9,-,N/A,,Overcast,240,2013-03-20 00:30:00
2:00 AM,39.2,37.4,93,29.44,6.2,WSW,6.9,-,N/A,,Overcast,240,2013-03-20 01:00:00
2:30 AM,39.2,39.2,100,29.44,6.2,WSW,6.9,-,N/A,,Overcast,240,2013-03-20 01:30:00
3:00 AM,39.2,37.4,93,29.44,6.2,WSW,8.1,-,N/A,Rain,Light Rain,250,2013-03-20 02:00:00
3:30 AM,39.2,37.4,93,29.47,3.1,West,9.2,-,N/A,Rain,Light Rain,260,2013-03-20 02:30:00
4:00 AM,39.2,37.4,93,29.47,3.7,West,9.2,-,N/A,Rain,Light Rain,260,2013-03-20 03:00:00
4:30 AM,39.2,37.4,93,29.47,5.6,West,9.2,-,N/A,,Drizzle,260,2013-03-20 03:30:00
5:00 AM,39.2,37.4,93,29.47,6.2,West,9.2,-,N/A,,Overcast,260,2013-03-20 04:00:00
5:30 AM,39.2,37.4,93,29.47,6.2,West,8.1,-,N/A,,Overcast,270,2013-03-20 04:30:00
6:00 AM,39.2,39.2,100,29.50,6.2,West,10.4,-,N/A,,Overcast,280,2013-03-20 05:00:00
6:30 AM,39.2,39.2,100,29.50,6.2,WNW,11.5,-,N/A,,Drizzle,290,2013-03-20 05:30:00
7:00 AM,39.2,37.4,93,29.50,6.2,NW,9.2,-,N/A,,Overcast,310,2013-03-20 06:00:00
7:30 AM,39.2,37.4,93,29.53,6.2,NW,8.1,-,N/A,,Overcast,320,2013-03-20 06:30:00
8:00 AM,39.2,37.4,93,29.53,6.2,NNW,5.8,-,N/A,Rain,Light Rain,330,2013-03-20 07:00:00
8:30 AM,39.2,39.2,100,29.56,6.2,NNW,5.8,-,N/A,Rain,Light Rain,340,2013-03-20 07:30:00
9:00 AM,39.2,37.4,93,29.59,6.2,North,6.9,-,N/A,,Mostly Cloudy,350,2013-03-20 08:00:00
9:30 AM,41.0,39.2,93,29.59,6.2,NW,4.6,-,N/A,,Overcast,320,2013-03-20 08:30:00
10:00 AM,41.0,39.2,93,29.62,6.2,NNW,4.6,-,N/A,,Overcast,340,2013-03-20 09:00:00
10:30 AM,41.0,39.2,93,29.62,6.2,North,5.8,-,N/A,,Overcast,10,2013-03-20 09:30:00
11:00 AM,42.8,39.2,87,29.65,6.2,North,6.9,-,N/A,,Overcast,360,2013-03-20 10:00:00
11:30 AM,42.8,37.4,81,29.68,6.2,North,6.9,-,N/A,,Overcast,360,2013-03-20 10:30:00
12:00 PM,42.8,37.4,81,29.68,6.2,North,9.2,-,N/A,,Overcast,360,2013-03-20 11:00:00
12:30 PM,44.6,37.4,76,29.71,6.2,North,6.9,-,N/A,,Overcast,360,2013-03-20 11:30:00
1:00 PM,44.6,37.4,76,29.71,6.2,North,8.1,-,N/A,,Overcast,360,2013-03-20 12:00:00
1:30 PM,44.6,39.2,81,29.74,6.2,North,6.9,-,N/A,,Overcast,350,2013-03-20 12:30:00
2:00 PM,44.6,37.4,76,29.74,6.2,NNW,8.1,-,N/A,,Mostly Cloudy,330,2013-03-20 13:00:00
2:30 PM,44.6,37.4,76,29.77,6.2,NNW,9.2,-,N/A,,Partly Cloudy,330,2013-03-20 13:30:00
3:00 PM,44.6,37.4,76,29.77,6.2,NNW,6.9,-,N/A,,Partly Cloudy,340,2013-03-20 14:00:00
3:30 PM,42.8,37.4,81,29.80,6.2,NW,8.1,-,N/A,,Scattered Clouds,320,2013-03-20 14:30:00
4:00 PM,42.8,37.4,81,29.80,6.2,NNW,8.1,-,N/A,,Mostly Cloudy,330,2013-03-20 15:00:00
4:30 PM,42.8,37.4,81,29.83,6.2,NW,5.8,-,N/A,,Partly Cloudy,320,2013-03-20 15:30:00
5:30 PM,42.8,35.6,76,29.83,6.2,North,5.8,-,N/A,,Scattered Clouds,360,2013-03-20 16:30:00
6:00 PM,41.0,35.6,81,29.86,6.2,Variable,3.5,-,N/A,,Partly Cloudy,0,2013-03-20 17:00:00
6:30 PM,41.0,35.6,81,29.89,6.2,WNW,5.8,-,N/A,,Mostly Cloudy,300,2013-03-20 17:30:00
7:00 PM,39.2,35.6,87,29.89,6.2,NW,4.6,-,N/A,,Overcast,310,2013-03-20 18:00:00
7:30 PM,39.2,35.6,87,29.92,6.2,Calm,Calm,-,N/A,,Overcast,0,2013-03-20 18:30:00
8:00 PM,37.4,35.6,93,29.92,6.2,Calm,Calm,-,N/A,,Overcast,0,2013-03-20 19:00:00
8:30 PM,37.4,35.6,93,29.92,5.0,Calm,Calm,-,N/A,,Unknown,0,2013-03-20 19:30:00
9:00 PM,37.4,35.6,93,29.95,4.3,Calm,Calm,-,N/A,,Unknown,0,2013-03-20 20:00:00
9:30 PM,35.6,33.8,93,29.95,-9999.0,Calm,Calm,-,N/A,,Mist,0,2013-03-20 20:30:00
10:00 PM,35.6,33.8,93,29.95,0.9,Variable,2.3,-,N/A,,Mist,0,2013-03-20 21:00:00
10:30 PM,33.8,32.0,93,29.95,1.7,Calm,Calm,-,N/A,Fog,Patches of Fog,0,2013-03-20 21:30:00
11:00 PM,33.8,32.0,93,29.95,0.4,Variable,1.2,-,N/A,Fog,Fog,0,2013-03-20 22:00:00
11:30 PM,33.8,33.8,100,29.98,3.1,SSW,2.3,-,N/A,,Mist,200,2013-03-20 22:30:00